Flag for U.S.A. Weather past 2 weeks in Unalaska, Alaska, U.S.A.

Now
51 °F

Fog.


Feels Like: 47 °F
Forecast: 53 / 58 °F
Wind: 13 mph from East

Location: Dutch Harbor

Current Time: Jul 25, 2014 at 7:22:02 PM

Latest Report: Jul 25, 2014 at 6:56 PM


Visibility: 6 mi

Pressure: 30.20 "Hg

Humidity: 89%

Dew point: 48 °F

Location of UnalaskaLocation

Historic Weather in Unalaska — Graph

°F

Unalaska temperature yesterday

Maximum temperature yesterday: 57 °F (at 2:58 PM)
Minimum temperature yesterday: 53 °F (at 12:56 AM)
Average temperature yesterday: 55 °F

Past Weeks' High & Low Weather Summary

 TemperatureHumidityPressure
High61 °F (Jul 13, 12:46 PM)100% (Jul 14, 8:52 AM)30.26 "Hg (Jul 14, 8:52 AM)
Low48 °F (Jul 11, 6:56 AM)59% (Jul 13, 12:46 PM)29.66 "Hg (Jul 12, 6:56 PM)
Average53 °F79%30.06 "Hg
* Reported Jul 10 5:56 PM — Jul 25 5:56 PM, Unalaska, Weather by CustomWeather, © 2014

Note: Actual official high and low records may vary slightly from our data, if they occured in-between our weather recording intervals... More about our weather records

Advertising

Unalaska weather history for previous 24 hours

 ConditionsComfort  
Time TempWeatherWind HumidityBarometerVisibility
5:56 PM
Jul 25
52 °FBroken clouds.15 mph83%30.20 "Hg10 mi
4:56 PM53 °FFog.17 mph83%30.21 "Hg10 mi
3:56 PM53 °FFog.16 mph83%30.22 "Hg10 mi
2:56 PM53 °FFog.15 mph83%30.22 "Hg10 mi
1:56 PM53 °FScattered clouds.16 mph83%30.21 "Hg10 mi
12:56 PM56 °FScattered clouds.10 mph77%30.22 "Hg10 mi
11:56 AM56 °FScattered clouds.No wind75%30.22 "Hg10 mi
10:56 AM54 °FScattered clouds.6 mph80%30.23 "Hg10 mi
9:56 AM52 °FScattered clouds.8 mph86%30.22 "Hg9 mi
8:59 AM54 °FScattered clouds.3 mph77%30.20 "Hg10 mi
7:58 AM52 °FPassing clouds.No wind82%30.21 "Hg10 mi
7:04 AM52 °FMostly cloudy.No wind82%30.21 "Hg10 mi
6:56 AM51 °FOvercast.No wind86%30.22 "Hg10 mi
5:56 AM51 °FPassing clouds.No wind86%30.22 "Hg10 mi
4:56 AM52 °FOvercast.6 mph86%30.22 "Hg10 mi
3:56 AM52 °FOvercast.No wind86%30.23 "Hg10 mi
2:56 AM52 °FOvercast.3 mph83%30.23 "Hg10 mi
1:56 AM52 °FPassing clouds.No wind83%30.23 "Hg10 mi
12:56 AM52 °FClear.6 mph83%30.22 "Hg10 mi
11:56 PM
Jul 24
53 °FPartly sunny.6 mph80%30.21 "Hg10 mi
10:56 PM54 °FOvercast.9 mph77%30.20 "Hg10 mi
9:56 PM54 °FOvercast.8 mph80%30.18 "Hg10 mi
8:56 PM56 °FOvercast.9 mph75%30.17 "Hg10 mi
7:56 PM55 °FPartly sunny.8 mph74%30.17 "Hg10 mi
Weather by CustomWeather, © 2014

See weather overviewHow to use our weather pages